Погода в Сизом Бугре

Россия / Астраханская область     46°12′46″N   48°30′10″E
темп.,
°C
ветер,
м/с
пор.,
м/с
влажн.,
%
обл.,
%
осадки,
мм/ч
давл.,
гПа
погр.,
м
20 апреля, вт
вт2001:00+13ююз2279100 0.1 1016149
04:00+12ююз1185100 0.1 101612
07:00+13юв3584100 0.0 1015170
10:00+17юв6765100 0.0 1016710
13:00+19вюв91159100 0.0 1014854
16:00+18вюв91358100 0.0 1013738
19:00+16в91762100 0.1 1013545
22:00+15вюв11216399 0.1 1013639
21 апреля, ср
ср2101:00+15вюв81762100 0.0 1014592
04:00+14вюв101963100 0.0 1014507
07:00+13вюв91568100 0.1 1015535
10:00+13вюв7136978 1.9 1016566
13:00+19вюв675040 0.0 10171223
16:00+19вюв684999 0.1 10161210
19:00+16в3557100 0.0 1016584
22:00+14ссз356699 0.1 1017188
22 апреля, чт
чт2201:00+13зсз477960 0.4 1017191
04:00+11сз38685 0.6 1018194
07:00+12сз3960100 0.0 1019302
10:00+15сз574995 0.0 1019510
13:00+15ссз71055100 0.3 1021712
16:00+15ссз795870 0.7 1021673
19:00+14ссз5866100 0.0 1020439
22:00+12ссз4973100 0.0 1020235
23 апреля, пт
пт2301:00+12с51051100 0.0 1018231
04:00+11с61150100 0.0 1018341
07:00+9сз6972100 1.4 1018337
10:00+10сз5964100 1.8 1018482
13:00+13ссз4749100 0.0 1018925
16:00+17ссз793493 0.0 10171558
19:00+13сз6948100 0.0 1018679
22:00+10сз37570 0.0 1019143
24 апреля, сб
сб2401:00+9сз37630 0.0 1018124
04:00+8зсз33690 0.0 101943
07:00+9сз2469100 0.0 1020131
10:00+14сз235253 0.0 1020565
13:00+19зсз4538100 0.0 10201854
16:00+21з453058 0.0 10192240
19:00+18ююз694626 0.0 1019481
22:00+14ююз6126272 0.0 1020414